Home   Weather   Cali   Past weeks
Flag for Colombia

Past Weather in Cali, Colombia — Yesterday and Last 2 Weeks

Now
79 °F

Passing clouds.


Feels Like: 81 °F
Forecast: 90 / 71 °F
Wind: 6 mph from Northeast

Location: Cali / Alfonso Bonillaaragon

Current Time: Feb 18, 2020 at 9:32:34 pm

Latest Report: Feb 18, 2020 at 9:00 pm


Visibility: N/A

Pressure: 29.85 "Hg (26.76 "Hg at 955m altitude)

Humidity: 70%

Dew Point: 68 °F

Location of CaliLocation

Past Weather in Cali — Graph

°F

Cali Temperature Yesterday

Maximum temperature yesterday: 95 °F (at 3:00 pm)
Minimum temperature yesterday: 66 °F (at 5:30 am)
Average temperature yesterday: 79 °F

High & Low Weather Summary for the Past Weeks

 TemperatureHumidityPressure
High95 °F (Feb 16, 3:00 pm)94% (Feb 4, 12:00 am)30.08 "Hg (Feb 4, 12:00 am)
Low63 °F (Feb 7, 5:30 am)36% (Feb 17, 3:00 pm)29.71 "Hg (Feb 17, 5:00 pm)
Average78 °F70%29.93 "Hg
* Reported Feb 3 8:00 pm — Feb 18 8:00 pm, Cali. Weather by CustomWeather, © 2020

Note: Actual official high and low records may vary slightly from our data, if they occured in-between our weather recording intervals... More about our weather records

Cali Weather History for the Previous 24 Hours

Scroll right to see more
 ConditionsComfort  
Time TempWeatherWind HumidityBarometerVisibility
8:00 pm
Tue, Feb 18
81 °FPassing clouds.6 mph66%29.81 "HgN/A
7:00 pm84 °FPassing clouds.12 mph62%29.77 "HgN/A
6:00 pm86 °FPassing clouds.12 mph55%29.75 "HgN/A
5:00 pm90 °FPassing clouds.16 mph49%29.74 "HgN/A
4:00 pm93 °FPartly sunny.3 mph39%29.74 "HgN/A
3:00 pm91 °FPartly sunny.3 mph41%29.75 "HgN/A
2:00 pm91 °FPartly sunny.6 mph44%29.78 "HgN/A
1:00 pm90 °FPartly sunny.3 mph46%29.83 "Hg5 mi
12:00 pm88 °FPartly sunny.3 mph49%29.87 "Hg4 mi
11:00 am84 °FPartly sunny.2 mph55%29.91 "Hg4 mi
10:10 am81 °FPartly sunny.6 mph66%29.93 "Hg4 mi
9:00 am77 °FPassing clouds.3 mph69%29.94 "Hg6 mi
8:00 am72 °FScattered clouds.5 mph78%29.94 "Hg6 mi
7:00 am66 °FScattered clouds.5 mph94%29.91 "Hg6 mi
6:00 am66 °FPassing clouds.3 mph94%29.88 "Hg6 mi
5:30 am66 °FPassing clouds.3 mph94%29.87 "HgN/A
5:00 am66 °FPassing clouds.3 mph94%29.86 "HgN/A
4:00 am70 °FPassing clouds.5 mph94%29.85 "HgN/A
3:00 am70 °FPassing clouds.3 mph94%N/AN/A
2:00 am70 °FPassing clouds.6 mph94%29.85 "Hg6 mi
1:00 am72 °FPassing clouds.7 mph88%29.86 "Hg6 mi
12:00 am72 °FPassing clouds.7 mph88%29.87 "Hg6 mi
11:00 pm
Mon, Feb 17
73 °FPassing clouds.7 mph83%29.87 "Hg6 mi
10:00 pm75 °FPassing clouds.9 mph78%29.86 "Hg6 mi
9:00 pm77 °FPassing clouds.9 mph74%29.83 "Hg6 mi
Weather by CustomWeather, © 2020

See weather overview

Advertising